Texas Shootout - LOFT FLY

Station: LOFT CHECK - T Race

Distance: 1 Miles    

Release: 07-Sep-2017 07:20

Weather Release:    Arrival:

Wind at Release:     Wind at Arrival:

Temp at Release: °    Temp at Arrival: °

Lofts: 162

Birds: 950

Clocked: 948

LOFT FLYING FOR THE LAST 2 DAYS
Drops Pos Breeder Pigeon Name Color Sex Ent Arrival Speed To Win Eligible
492 Skylinerpl.Com - UT 0964-AU17-UVI BBWF H 5 2017-09-17 08:48:39.52 0.140 208:04:0 Yes
492 New Orleans Boys - LA 0751-AU17-MET MLWF H 4 2017-09-17 08:48:39.78 0.140 208:04:0 Yes
492 Zheng Loft - FL 0120-AU17-LIN BB C 1 2017-09-17 08:48:40.17 0.140 208:04:0 Yes
492 Southern Legacy Loft - TX 0429-AU17-SLL BB H 10 2017-09-17 08:48:40.22 0.140 208:04:0 Yes
492 Carroll Hoover - PA 1137-IF17-RLPC BB H 4 2017-09-17 08:48:40.39 0.140 208:04:0 Yes
492 Quest Syndicate/Any Given Day Loft - TX 16638-AU17-QS BB H 8 2017-09-17 08:48:40.44 0.140 208:04:0 Yes
492 ! ! ! S P E E D S - R A C E R S ! ! ! - FL 2686-AU17-SCHE BC H 3 2017-09-17 08:48:40.66 0.140 208:04:0 Yes
492 Little Reata Loft - TX 17358-AU17-JETT BCWF C 7 2017-09-17 08:48:40.70 0.140 208:04:0 Yes
492 Southern Legacy Loft - TX 2248-AU17-JOJO BB C 8 2017-09-17 08:48:40.99 0.140 208:04:0 Yes
492 Clear Springs Loft - FL 17002-AU17-WARD BB H 2 2017-09-17 08:48:41.03 0.140 208:04:0 Yes
492 Tou Loft - TN 0060-AU17-TOU BB H 2 2017-09-17 08:48:41.30 0.140 208:04:0 Yes
492 Utaz Boys/ Jones - UT 1086-AU17-SLI BCWF C 3 2017-09-17 08:48:41.31 0.140 208:04:0 Yes
492 Da Dong - WI 1073-AU17-KEN BB H 5 2017-09-17 08:48:41.74 0.140 208:04:0 Yes
492 Y Mtn Loft - TN 26153-AU17-YMTN BB H 5 2017-09-17 08:48:41.78 0.140 208:04:0 Yes
492 Hugo Family Loft - IL 2277-MX17-ACEJ BB H 4 2017-09-17 08:48:41.81 0.140 208:04:0 Yes
492 Champ Camp - IN 0214-AU17-CAMP BCPD H 13 2017-09-17 08:48:42.09 0.140 208:04:0 Yes
492 Floating Feather Loft - TX 1343-AU17-CVL BB C 2 2017-09-17 08:48:42.17 0.140 208:04:0 Yes
492 Big Andy - FL 0268-AU17-ANDY BC C 2 2017-09-17 08:48:42.22 0.140 208:04:0 Yes
492 Clear Springs Loft - FL 17101-AU17-WARD BB C 4 2017-09-17 08:48:42.33 0.140 208:04:0 Yes
492 Dream Team - VT 0818-AU17-JCZL BC H 10 2017-09-17 08:48:42.47 0.140 208:04:0 Yes
492 Wessel Family Lofts - CA 1449-AU17-ARC BB C 2 2017-09-17 08:48:42.49 0.140 208:04:0 Yes
492 Milestone Loft - CA 0188-AU17-SD DCWF C 4 2017-09-17 08:48:42.59 0.140 208:04:0 Yes
492 Bynum Family Lofts - TX 0221-AU17-BFL BB C 5 2017-09-17 08:48:42.88 0.140 208:04:0 Yes
492 Bill Wisdom - TX 0345-AU17-DEN BB H 3 2017-09-17 08:48:43.00 0.140 208:04:0 Yes
492 Cuba Loft 2 - TX 36164-AU17-ARPU BC C 4 2017-09-17 08:48:43.11 0.140 208:04:0 Yes
492 Da Dong - WI 0340-AU17-RAC BB C 3 2017-09-17 08:48:43.24 0.140 208:04:0 Yes
492 Gossett & Son - TX 1006-AU17-WF BBWF C 6 2017-09-17 08:48:43.25 0.140 208:04:0 Yes
492 Taj Syndicate - TX 0022-AU17-EISN BC C 3 2017-09-17 08:48:43.99 0.140 208:04:0 Yes
492 Frank Martinez - CA 8200-AU17-FORT BC H 1 2017-09-17 08:48:44.00 0.140 208:04:0 Yes
492 Utaz Boys/ Jones - UT 1055-AU17-SLI BB H 2 2017-09-17 08:48:44.03 0.140 208:04:0 Yes
492 Jokers Wild - CA 0345-AU17-JOKE BBWF C 4 2017-09-17 08:48:44.34 0.140 208:04:0 Yes
492 Dream Team - VT 0376-AU17-JCZL 35559x6801 BC H 9 2017-09-17 08:48:44.49 0.140 208:04:0 Yes
492 Wartick Loft - KS 35892-AU17-AA BB C 5 2017-09-17 08:48:44.53 0.140 208:04:0 Yes
492 Charlie Barbiere - NJ 1949-IF17-BSC BB H 4 2017-09-17 08:48:45.14 0.140 208:04:0 Yes
492 Elton Dinga - TX 12084-AU17-AA BB H 35 2017-09-17 08:48:45.17 0.140 208:04:0 Yes
492 Little Reata Loft - TX 17329-AU17-JETT BB H 10 2017-09-17 08:48:45.36 0.140 208:04:0 Yes
492 Y Mtn Loft - TN 26200-AU17-YMTN BB C 3 2017-09-17 08:48:45.41 0.140 208:04:0 Yes
492 Quest Syndicate - TX 16059-AU17-QS BC H 2 2017-09-17 08:48:45.45 0.140 208:04:0 Yes
492 Black Magic Loft - TX 0404-AU17-BLKM BC H 4 2017-09-17 08:48:45.55 0.140 208:04:0 Yes
492 Shallow Pockets - TX 0052-AU17-SHAL BB C 6 2017-09-17 08:48:46.00 0.140 208:04:0 Yes
492 Zheng Loft - FL 8895-AU17-ZHEN BBWF H 2 2017-09-17 08:48:46.05 0.140 208:04:0 Yes
492 Cajun Express Loft - LA 0833-AU17-CEL BB H 4 2017-09-17 08:48:46.06 0.140 208:04:0 Yes
492 Dream Team - VT 0391-AU17-JCZL 5227x74917 BCSP H 12 2017-09-17 08:48:46.14 0.140 208:04:0 Yes
492 Neighbor Hood Bullies - TX 0702-AU17-HALE BBWF H 11 2017-09-17 08:48:46.24 0.140 208:04:0 Yes
492 Champ Camp - IN 0202-AU17-CHMP BWFP H 10 2017-09-17 08:48:46.38 0.140 208:04:0 Yes
492 Highland Loft - NY 17069-AU17-DZ BC C 2 2017-09-17 08:48:46.69 0.140 208:04:0 Yes
492 Neighbor Hood Bullies - TX 0796-AU17-WF BB H 5 2017-09-17 08:48:46.80 0.140 208:04:0 Yes
492 Nemeth Loft - CA 8779-AU17-BON BCWF H 2 2017-09-17 08:48:46.97 0.140 208:04:0 Yes
492 Steven Loft - TX 5865-AU17-ARPU BB H 2 2017-09-17 08:48:47.20 0.140 208:04:0 Yes
492 Southern Legacy Loft - TX 2179-AU17-JOJO BC H 11 2017-09-17 08:48:47.56 0.140 208:04:0 Yes
492 Baldwin / Tilson - NC 7220-AU17-TNTL BBWF H 3 2017-09-17 08:48:47.58 0.140 208:04:0 Yes
492 Elton Dinga - TX 12135-AU17-AA BB C 40 2017-09-17 08:48:47.59 0.140 208:04:0 Yes
492 Racing Pigeon Mall - WA 0710-AU17-RPM BB H 5 2017-09-17 08:48:47.63 0.140 208:04:0 Yes
492 Flying D Loft - TX 0304-AU17-FLYD BB H 3 2017-09-17 08:48:47.97 0.140 208:04:0 Yes
492 Hugo Family Loft - IL 93093-IF17-E BB H 3 2017-09-17 08:48:48.02 0.140 208:04:0 Yes
492 Shiloft - PA 0074-IF17-MIN BC C 7 2017-09-17 08:48:48.03 0.140 208:04:0 Yes
492 Robin & Brenda - TX 0344-AU17-WWC Otto COWF H 4 2017-09-17 08:48:48.36 0.140 208:04:0 Yes
492 Cajun Express Loft - LA 10962-AU17-AA BCPD H 2 2017-09-17 08:48:48.49 0.140 208:04:0 Yes
492 Lee Family Loft - MS 2909-AU17-LEE BBPD H 3 2017-09-17 08:48:48.63 0.140 208:04:0 Yes
492 Barry Venn - WY 1969-AU17-VENN BBWF C 6 2017-09-17 08:48:48.84 0.140 208:04:0 Yes
492 Elton Dinga - TX 12149-AU17-AA BB H 33 2017-09-17 08:48:49.08 0.140 208:04:0 Yes
492 Marengo Creek Farms - AL 2755-AU17-MCF BB H 7 2017-09-17 08:48:49.19 0.140 208:04:0 Yes
492 Elton Dinga - TX 12117-AU17-AA DCWF H 42 2017-09-17 08:48:49.33 0.140 208:04:0 Yes
492 Gossett & Son - TX 1022-AU17-WF DCWF H 5 2017-09-17 08:48:49.41 0.140 208:04:0 Yes
492 Steven Loft - TX 5868-AU17-ARPU BBPD H 3 2017-09-17 08:48:49.55 0.140 208:04:0 Yes
492 Dream Union - DC 0185-AU17-ARPU BB H 2 2017-09-17 08:48:49.67 0.140 208:04:0 Yes
492 Chen Loft - PA 0129-AU17-TFC BBWF C 5 2017-09-17 08:48:49.81 0.140 208:04:0 Yes
492 English Syndicate - UK 2987-AU17-TEX BBSP H 9 2017-09-17 08:48:49.88 0.140 208:04:0 Yes
492 West Wing Syndicate - TX 1164-AU17-WWC BKSP H 6 2017-09-17 08:48:50.24 0.140 208:04:0 Yes
492 Apollo Loft 2 - IL 2685-AU17-APLO DC H 4 2017-09-17 08:48:50.52 0.140 208:04:0 Yes
492 Chen Loft - PA 1081-AU17-TFC BBPD H 6 2017-09-17 08:48:50.55 0.140 208:04:0 Yes
492 Milestone Loft - CA 0176-AU17-SD BB H 3 2017-09-17 08:48:50.59 0.140 208:04:0 Yes
492 Fleet Washington - DC 1772-AU17-FLTW BB H 2 2017-09-17 08:48:50.61 0.140 208:04:0 Yes
492 Los Banditos - CA 2474-AU17-LB BB H 4 2017-09-17 08:48:50.64 0.140 208:04:0 Yes
492 Taj Syndicate - TX 0025-AU17-EISN DC C 5 2017-09-17 08:48:50.88 0.140 208:04:0 Yes
492 King Rps Loft - CA 1480-AU17-FOYS DC H 3 2017-09-17 08:48:51.30 0.140 208:04:0 Yes
492 Liqingni Loft - NY 0288-AU17-YANG BB C 3 2017-09-17 08:48:51.44 0.140 208:04:0 Yes
492 Zheng Loft - FL 0117-AU17-LIN BB H 5 2017-09-17 08:48:51.49 0.140 208:04:0 Yes
492 Zhenyuan Guo - SC 0684-AU17-GUO BC H 4 2017-09-17 08:48:51.75 0.140 208:04:0 Yes
492 Cbs & Rick - OK 1918-AU17-CBS BB H 5 2017-09-17 08:48:51.84 0.140 208:04:0 Yes
492 Fleet Washington - DC 1777-AU17-FLTW BB C 1 2017-09-17 08:48:51.94 0.140 208:04:0 Yes
492 Lee Family Loft - MS 2935-AU17-LEE MLY C 1 2017-09-17 08:48:52.03 0.140 208:04:0 Yes
492 Highland Loft - NY 17084-AU17-DZ BC H 4 2017-09-17 08:48:52.16 0.140 208:04:0 Yes
492 Bieche Lofts - CA 7387-AU17-BCHE BC H 4 2017-09-17 08:48:52.17 0.140 208:04:0 Yes
492 Champ Camp - IN 0193-AU17-CHMP BWFP H 12 2017-09-17 08:48:52.50 0.140 208:04:0 Yes
492 Zhenyuan Guo - SC 0690-AU17-GUO BC H 8 2017-09-17 08:48:52.63 0.140 208:04:0 Yes
492 Morningside Racing Loft - TX 91077-AU17-MSRL BC H 4 2017-09-17 08:48:52.67 0.140 208:04:0 Yes
492 Ed Minvielle - LA 17274-AU17-A BB C 3 2017-09-17 08:48:52.81 0.140 208:04:0 Yes
492 Dream Team - VT 0551-AU17-JCZL BBWF C 6 2017-09-17 08:48:52.86 0.140 208:04:0 Yes
492 Band Of Brothers - TX 0760-AU17-HOOK BC H 8 2017-09-17 08:48:53.09 0.140 208:04:0 Yes
492 Bionic Loft - LA 0633-AU17-CAJN BC H 2 2017-09-17 08:48:53.19 0.140 208:04:0 Yes
492 O & L De Vries - ON 2435-AU17-OL BB C 3 2017-09-17 08:48:53.22 0.140 208:04:0 Yes
492 Cuevas Classic - TX 0030-AU17-DAL Dirty Face SIL C 2 2017-09-17 08:48:53.27 0.140 208:04:0 Yes
492 Tou Loft - TN 0052-AU17-TOU BWFP H 4 2017-09-17 08:48:53.50 0.140 208:04:0 Yes
492 777 Victory Loft - NY 0147-AU17-NYLN BBPD H 4 2017-09-17 08:48:53.74 0.140 208:04:0 Yes
492 Two Cousins - LA 3075-AU17-BYOU DC H 4 2017-09-17 08:48:54.05 0.140 208:04:0 Yes
492 H & H Loft - TX 6955-AU17-VK BBWF H 10 2017-09-17 08:48:54.19 0.140 208:04:0 Yes
492 Nemelka Racing Pigeon Loft - UT 7140-AU17-NRPL Florian x New Gaga BB C 1 2017-09-17 08:48:54.75 0.140 208:04:0 Yes
492 Tulsa Racers - OK 1500-AU17-REED SIL C 3 2017-09-17 08:48:54.83 0.140 208:04:0 Yes
492 Dream Team - VT 0386-AU17-JCZL 745x812 BB H 7 2017-09-17 08:48:54.88 0.140 208:04:0 Yes

There are 1003 bird records

Note: These Race Results are unofficial and subject to change until verified by the Race Committee and declared final.